Terminal Aerodrome Forecast
Issued by NWS

Home | Current Version | Previous Version | Text Only | Print | Product List | Glossary On
Versions: 1 2 3 4 5 6 7 8 9 10 11 12 13 14
000
FTUS42 KTBW 011100
TAFRSW
TAF
KRSW 011130Z 0112/0212 VRB03KT P6SM SCT090 BKN250
     FM011600 25006KT P6SM VCSH FEW030 SCT250
     FM011800 25007KT P6SM VCTS SCT035CB BKN250
     FM020100 VRB03KT P6SM FEW035 SCT250=

USA.gov is the U.S. government's official web portal to all federal, state and local government web resources and services.